Back to catalog

COSMOS 2251 DEB

AliveLEO
NORAD 34056·DEBRIS·🇷🇺 Russia

Launched Jun 16, 1993 from Plesetsk Cosmodrome

Loading…

Next Passes (next 24 hours)

TLE

FreshSource: Space-Track

Epoch: Sep 14, 2026, 13:43 UTC

1 34056U 93036JT  26257.57203223  .00002180  00000-0  91750-3 0  9991
2 34056  74.0569 302.4043 0127911 283.9493 230.0805 14.22053513903305

Track COSMOS 2251 DEB in real time with AllMySat

Download on the App Store